GW5034 Weather Reports


time (UTC)temp
C
wind
direction
speed
KPH
gust
KPH
rain 1hr
cm
rain 24hr
cm
rain mn
cm
humidity
%
barometer
mb
20260906171024 22 69 3.2 4.8 0.05 0.05 0.05 74 1023.6
20260906170543 22 36 1.6 6.4 0.03 0.03 0.03 72 1023.8
20260906170021 22 70 3.2 8.0 0.03 0.03 0.03 72 1023.7
20260906165540 22 33 1.6 4.8 0.03 0.03 0.03 75 1023.7
20260906165019 22 71 3.2 6.4 0.03 0.03 0.03 73 1023.8
20260906164517 22 74 3.2 6.4 0.03 0.03 0.03 73 1023.9
20260906164016 22 54 3.2 6.4 0.03 0.03 0.03 74 1023.9
20260906163535 22 43 3.2 8.0 0.03 0.03 0.03 74 1023.9
20260906163034 22 49 3.2 8.0 0.00 0.00 0.00 75 1023.9
20260906162531 22 57 3.2 9.7 0.00 0.00 0.00 77 1023.9
20260906162031 21 54 4.8 9.7 0.00 0.00 0.00 77 1023.9
20260906161529 21 64 3.2 6.4 0.00 0.00 0.00 78 1023.9
20260906161028 21 67 3.2 6.4 0.00 0.00 0.00 80 1023.8
20260906160527 21 65 3.2 6.4 0.00 0.00 0.00 81 1023.8
20260906160025 21 72 4.8 8.0 0.00 0.00 0.00 82 1023.8
20260906155523 21 105 3.2 6.4 0.00 0.00 0.00 84 1023.8
20260906155022 20 96 1.6 6.4 0.00 0.00 0.00 83 1023.6
20260906154521 20 87 3.2 6.4 0.00 0.00 0.00 84 1023.6
20260906154019 20 153 1.6 3.2 0.00 0.00 0.00 85 1023.5
20260906153518 20 70 1.6 6.4 0.00 0.00 0.00 86 1023.7
20260906153017 20 83 3.2 6.4 0.00 0.00 0.00 85 1023.8
20260906152515 20 59 3.2 6.4 0.00 0.00 0.00 85 1023.8
20260906152034 20 51 3.2 6.4 0.00 0.00 0.00 87 1023.8
20260906151553 20 77 1.6 6.4 0.00 0.00 0.00 87 1023.8
20260906151052 20 73 4.8 8.0 0.00 0.00 0.00 87 1023.9
20260906150530 19 88 3.2 6.4 0.00 0.00 0.00 88 1023.9
20260906150029 19 68 4.8 6.4 0.00 0.00 0.00 88 1023.7
20260906145527 18 80 1.6 6.4 0.00 0.00 0.00 91 1023.7
20260906145026 18 75 1.6 6.4 0.00 0.00 0.00 91 1023.7
20260906144524 18 82 3.2 8.0 0.00 0.00 0.00 92 1023.7
20260906144023 18 86 3.2 6.4 0.00 0.00 0.00 94 1023.8
20260906143522 17 84 3.2 6.4 0.00 0.00 0.00 95 1023.6
20260906143021 17 77 3.2 6.4 0.00 0.00 0.00 96 1023.7
20260906142519 17 92 3.2 6.4 0.00 0.00 0.00 97 1023.6
20260906142018 17 100 3.2 6.4 0.00 0.00 0.00 99 1023.5
20260906141517 16 106 3.2 6.4 0.00 0.00 0.00 99 1023.6
20260906141035 16 95 3.2 6.4 0.00 0.00 0.00 99 1023.5
20260906140554 16 134 1.6 6.4 0.00 0.00 0.00 99 1023.5
20260906140032 16 92 3.2 8.0 0.00 0.00 0.00 99 1023.7
20260906135551 16 97 1.6 4.8 0.00 0.00 0.00 99 1023.8
20260906135030 16 109 1.6 4.8 0.00 0.00 0.00 99 1023.8
20260906134528 15 96 3.2 6.4 0.00 0.00 0.00 99 1023.8
20260906134027 15 101 3.2 6.4 0.00 0.00 0.00 99 1023.9
20260906133526 15 104 1.6 4.8 0.00 0.00 0.00 99 1024.0
20260906133104 15 96 3.2 4.8 0.00 0.00 0.00 99 1023.9
20260906132522 15 101 3.2 4.8 0.00 0.00 0.00 99 1023.8
20260906132021 14 115 3.2 4.8 0.00 0.00 0.00 99 1023.9
20260906131519 14 104 3.2 4.8 0.00 0.00 0.00 99 1023.8
20260906131018 14 106 3.2 6.4 0.00 0.00 0.00 99 1023.8
20260906130517 14 105 3.2 6.4 0.00 0.00 0.00 99 1023.6
20260906130016 13 110 3.2 4.8 0.00 0.00 0.00 99 1023.6
20260906125534 13 103 3.2 4.8 0.00 0.00 0.00 99 1023.5
20260906125033 13 93 3.2 6.4 0.00 0.00 0.00 99 1023.5
20260906124531 13 91 3.2 4.8 0.00 0.00 0.00 99 1023.5
20260906124050 13 96 4.8 4.8 0.00 0.00 0.00 99 1023.5
20260906123528 13 108 4.8 6.4 0.00 0.00 0.00 99 1023.4
20260906123028 13 100 3.2 6.4 0.00 0.00 0.00 99 1023.3
20260906122526 13 105 4.8 6.4 0.00 0.00 0.00 99 1023.3
20260906122044 13 110 4.8 6.4 0.00 0.00 0.00 99 1023.3
20260906121543 13 110 4.8 6.4 0.00 0.00 0.00 99 1023.2
20260906121021 13 107 4.8 6.4 0.00 0.00 0.00 99 1023.1
20260906120520 13 106 4.8 6.4 0.00 0.00 0.00 99 1023.0
20260906120019 13 103 4.8 6.4 0.00 0.00 0.00 99 1022.9
20260906115538 13 89 4.8 6.4 0.00 0.00 0.00 99 1022.7
20260906115016 13 101 4.8 6.4 0.00 0.00 0.00 99 1022.7
20260906114535 13 102 3.2 6.4 0.00 0.00 0.00 99 1022.7
20260906114033 13 119 3.2 6.4 0.00 0.00 0.00 99 1022.7
20260906113633 13 107 3.2 6.4 0.00 0.00 0.00 99 1022.7
20260906113031 13 112 3.2 6.4 0.00 0.00 0.00 99 1022.8
20260906112529 13 94 3.2 6.4 0.00 0.00 0.00 99 1022.8
20260906112029 13 110 4.8 6.4 0.00 0.00 0.00 99 1022.9
20260906111526 13 101 4.8 6.4 0.00 0.00 0.00 99 1022.8
20260906111025 13 108 4.8 6.4 0.00 0.00 0.00 99 1022.7
20260906110523 13 101 4.8 6.4 0.00 0.00 0.00 99 1022.5
20260906110022 13 115 4.8 8.0 0.00 0.00 0.00 99 1022.6
20260906105520 13 111 3.2 6.4 0.00 0.00 0.00 99 1022.6
20260906105019 13 103 3.2 6.4 0.00 0.00 0.00 99 1022.5
20260906104538 13 103 4.8 6.4 0.00 0.00 0.00 99 1022.5
20260906104016 13 98 4.8 8.0 0.00 0.00 0.00 99 1022.5
20260906103535 13 109 4.8 6.4 0.00 0.00 0.00 99 1022.5
20260906103033 13 103 4.8 6.4 0.00 0.00 0.00 99 1022.5
20260906102532 13 107 4.8 6.4 0.00 0.00 0.00 99 1022.4
20260906102111 13 109 3.2 6.4 0.00 0.00 0.00 99 1022.3
20260906101529 13 99 4.8 8.0 0.00 0.00 0.00 99 1022.4
20260906101027 13 98 4.8 6.4 0.00 0.00 0.00 99 1022.3
20260906100527 13 108 4.8 6.4 0.00 0.00 0.00 99 1022.3
20260906100025 13 99 3.2 6.4 0.00 0.00 0.00 99 1022.3
20260906095523 13 96 3.2 6.4 0.00 0.00 0.00 99 1022.2
20260906095042 14 103 3.2 6.4 0.00 0.00 0.00 99 1022.3
20260906094520 14 80 3.2 6.4 0.00 0.00 0.00 99 1022.2
20260906094039 14 110 3.2 6.4 0.00 0.00 0.00 99 1022.2
20260906093518 14 67 3.2 9.7 0.00 0.00 0.00 99 1022.1
20260906093016 14 110 4.8 8.0 0.00 0.00 0.00 99 1022.3
20260906092535 14 106 3.2 6.4 0.00 0.00 0.00 99 1022.4
20260906092034 14 119 4.8 6.4 0.00 0.00 0.00 99 1022.4
20260906091532 14 103 3.2 8.0 0.00 0.00 0.00 99 1022.5
20260906091030 14 103 4.8 8.0 0.00 0.00 0.00 99 1022.5
20260906090549 14 110 4.8 8.0 0.00 0.00 0.00 99 1022.6
20260906090028 14 104 3.2 8.0 0.00 0.00 0.00 99 1022.7
20260906085526 14 107 4.8 9.7 0.00 0.00 0.00 99 1022.6
20260906085025 15 84 4.8 9.7 0.00 0.00 0.00 99 1022.5
20260906084524 15 98 4.8 9.7 0.00 0.00 0.00 99 1022.4
20260906084022 15 113 3.2 6.4 0.00 0.00 0.00 99 1022.1
20260906083520 15 106 3.2 6.4 0.00 0.00 0.00 99 1022.2
20260906083040 15 91 4.8 6.4 0.00 0.00 0.00 99 1022.1
20260906082538 15 124 4.8 8.0 0.00 0.00 0.00 99 1022.4
20260906082017 15 110 3.2 9.7 0.00 0.00 0.00 99 1022.3
20260906081535 15 106 3.2 6.4 0.00 0.00 0.00 99 1022.2
20260906081114 15 123 3.2 4.8 0.00 0.00 0.00 99 1022.1
20260906080532 15 114 3.2 4.8 0.00 0.00 0.00 99 1022.2
20260906080032 15 109 3.2 4.8 0.00 0.00 0.00 99 1022.4
20260906075529 15 102 3.2 4.8 0.00 0.00 0.00 99 1022.4
20260906075028 15 104 3.2 4.8 0.00 0.00 0.00 99 1022.2
20260906074526 15 100 3.2 3.2 0.00 0.00 0.00 99 1022.1
20260906074046 15 87 3.2 3.2 0.00 0.00 0.00 99 1022.0
20260906073523 15 97 3.2 4.8 0.00 0.00 0.00 99 1022.0
20260906073022 15 100 3.2 4.8 0.00 0.00 0.00 99 1022.0
20260906072520 15 100 3.2 4.8 0.00 0.00 0.00 99 1022.0
20260906072019 15 96 3.2 4.8 0.00 0.00 0.00 99 1022.0
20260906071517 15 99 3.2 3.2 0.00 0.00 0.00 99 1022.1
20260906071015 15 98 3.2 3.2 0.00 0.00 0.00 99 1022.1
20260906070534 15 96 3.2 3.2 0.00 0.00 0.00 99 1022.2
20260906070033 15 98 3.2 4.8 0.00 0.00 0.00 99 1022.2
20260906065531 16 98 3.2 4.8 0.00 0.00 0.00 99 1022.3
20260906065030 16 103 3.2 4.8 0.00 0.00 0.00 99 1022.3
20260906064608 16 108 3.2 3.2 0.00 0.00 0.00 99 1022.4
20260906064027 16 109 3.2 4.8 0.00 0.00 0.00 99 1022.5
20260906063526 16 107 4.8 6.4 0.00 0.00 0.00 99 1022.4
20260906063044 16 110 4.8 6.4 0.00 0.00 0.00 99 1022.4
20260906062523 16 107 4.8 4.8 0.00 0.00 0.00 99 1022.3
20260906062041 16 109 3.2 4.8 0.00 0.00 0.00 99 1022.1
20260906061520 16 109 4.8 4.8 0.00 0.00 0.00 99 1022.1
20260906061018 16 104 3.2 3.2 0.00 0.00 0.00 99 1022.0
20260906060517 16 105 3.2 4.8 0.00 0.00 0.00 99 1021.9
20260906060016 16 109 4.8 4.8 0.00 0.00 0.00 99 1021.9
20260906055554 16 113 3.2 4.8 0.00 0.00 0.00 99 1021.9
20260906055033 16 116 3.2 4.8 0.00 0.00 0.00 99 1021.9
20260906054531 16 107 3.2 4.8 0.00 0.00 0.00 99 1021.9
20260906054029 16 103 3.2 4.8 0.00 0.00 0.00 99 1021.7
20260906053528 16 104 4.8 4.8 0.00 0.00 0.00 99 1021.7
20260906053027 16 105 3.2 4.8 0.00 0.00 0.00 99 1021.6
20260906052526 16 108 3.2 3.2 0.00 0.00 0.00 99 1021.5
20260906052024 16 108 3.2 4.8 0.00 0.00 0.00 99 1021.4
20260906051523 16 109 3.2 4.8 0.00 0.00 0.00 99 1021.5
20260906051022 16 100 1.6 3.2 0.00 0.00 0.00 99 1021.5
20260906050520 16 100 1.6 3.2 0.00 0.00 0.00 99 1021.6
20260906050018 16 101 3.2 3.2 0.00 0.00 0.00 99 1021.7
20260906045537 16 105 3.2 3.2 0.00 0.00 0.00 99 1021.6
20260906045016 16 111 3.2 4.8 0.00 0.00 0.00 99 1021.6
20260906044534 16 108 3.2 3.2 0.00 0.00 0.00 99 1021.6
20260906044033 16 109 3.2 4.8 0.00 0.00 0.00 99 1021.5
20260906043531 16 109 3.2 4.8 0.00 0.00 0.00 99 1021.4
20260906043030 16 107 3.2 4.8 0.00 0.00 0.00 99 1021.3
20260906042528 16 110 3.2 4.8 0.00 0.00 0.00 99 1021.4
20260906042047 16 106 3.2 3.2 0.00 0.00 0.00 99 1021.3
20260906041525 16 102 3.2 4.8 0.00 0.00 0.00 99 1021.2
20260906041044 16 100 3.2 4.8 0.00 0.00 0.00 99 1021.1
20260906040523 16 100 3.2 3.2 0.00 0.00 0.00 99 1021.0
20260906040041 16 103 3.2 4.8 0.00 0.00 0.00 99 1021.0
20260906035520 16 101 3.2 4.8 0.00 0.00 0.00 99 1020.9
20260906035019 16 100 3.2 3.2 0.00 0.00 0.00 99 1020.8
20260906034517 17 93 3.2 3.2 0.00 0.00 0.00 99 1020.8
20260906034016 17 93 3.2 3.2 0.00 0.00 0.00 99 1020.9
20260906033534 17 94 3.2 3.2 0.00 0.00 0.00 99 1021.0
20260906033033 17 96 1.6 3.2 0.00 0.00 0.00 99 1021.0
20260906032531 17 95 1.6 3.2 0.00 0.00 0.00 99 1020.9
20260906032030 17 104 1.6 3.2 0.00 0.00 0.00 99 1020.8
20260906031528 17 93 1.6 3.2 0.00 0.00 0.00 99 1020.6
20260906031026 17 89 1.6 3.2 0.00 0.00 0.00 99 1020.6
20260906030525 17 83 1.6 3.2 0.00 0.00 0.00 98 1020.8
20260906030023 17 89 1.6 3.2 0.00 0.00 0.00 98 1020.8
20260906025522 17 90 1.6 3.2 0.00 0.00 0.00 98 1020.9
20260906025020 17 81 3.2 3.2 0.00 0.00 0.00 98 1020.7
20260906024519 17 81 1.6 3.2 0.00 0.00 0.00 98 1020.8
20260906024017 17 97 1.6 3.2 0.00 0.00 0.00 98 1020.7
20260906023516 17 99 3.2 3.2 0.00 0.00 0.00 98 1020.8
20260906023034 17 105 3.2 4.8 0.00 0.00 0.00 98 1020.8
20260906022533 17 111 3.2 4.8 0.00 0.00 0.00 98 1020.8
20260906022031 17 112 3.2 4.8 0.00 0.00 0.00 98 1020.8
20260906021550 17 110 3.2 3.2 0.00 0.00 0.00 98 1020.7
20260906021029 17 100 1.6 3.2 0.00 0.00 0.00 98 1020.6
20260906020527 17 102 1.6 3.2 0.00 0.00 0.00 98 1020.4
20260906020025 18 100 1.6 3.2 0.00 0.00 0.00 97 1020.5
20260906015524 18 99 1.6 3.2 0.00 0.00 0.00 97 1020.4
20260906015023 18 102 3.2 3.2 0.00 0.00 0.00 97 1020.4
20260906014521 18 102 3.2 3.2 0.00 0.00 0.00 97 1020.4
20260906014020 18 101 1.6 3.2 0.00 0.00 0.00 96 1020.4
20260906013519 18 98 3.2 3.2 0.00 0.00 0.00 96 1020.3
20260906013017 18 102 3.2 3.2 0.00 0.00 0.00 96 1020.3
20260906012516 18 101 1.6 3.2 0.00 0.00 0.00 95 1020.3
20260906012035 18 99 1.6 3.2 0.00 0.00 0.00 95 1020.1
20260906011533 18 99 1.6 3.2 0.00 0.00 0.00 95 1020.2
20260906011032 18 98 3.2 4.8 0.00 0.00 0.00 95 1020.1
20260906010531 18 105 1.6 3.2 0.00 0.00 0.00 94 1020.1
20260906010029 18 114 1.6 3.2 0.00 0.00 0.00 93 1020.1
20260906005549 19 115 1.6 3.2 0.00 0.00 0.00 93 1020.1
20260906005027 19 111 1.6 3.2 0.00 0.00 0.00 92 1020.0
20260906004525 19 110 1.6 3.2 0.00 0.00 0.00 92 1020.0
20260906004023 20 118 1.6 3.2 0.00 0.00 0.00 92 1020.0
20260906003643 20 105 3.2 4.8 0.00 0.00 0.00 91 1020.1
20260906003021 20 105 1.6 3.2 0.00 0.00 0.00 91 1020.1
20260906002519 20 115 1.6 3.2 0.00 0.00 0.00 90 1020.0
20260906002018 20 114 1.6 3.2 0.00 0.00 0.00 90 1020.0
20260906001537 20 113 0.0 1.6 0.00 0.00 0.00 89 1020.1
20260906001035 20 109 1.6 3.2 0.00 0.00 0.00 89 1020.0
20260906000533 21 100 1.6 3.2 0.00 0.00 0.00 87 1020.1
20260906000032 21 95 1.6 3.2 0.00 0.00 0.00 86 1020.0
20260905235530 21 95 1.6 3.2 0.00 0.00 0.00 86 1020.0
20260905235030 21 102 1.6 1.6 0.00 0.00 0.00 85 1019.9
20260905234528 21 103 1.6 3.2 0.00 0.00 0.00 86 1019.9
20260905234026 21 115 1.6 3.2 0.00 0.00 0.00 85 1020.0
20260905233525 21 103 0.0 3.2 0.00 0.00 0.00 84 1020.1
20260905233024 22 98 1.6 3.2 0.00 0.00 0.00 83 1020.0
20260905232522 22 112 1.6 3.2 0.00 0.00 0.00 82 1019.9
20260905232141 22 104 1.6 3.2 0.00 0.00 0.00 82 1019.8
20260905231519 22 107 1.6 3.2 0.00 0.00 0.00 80 1019.9
20260905231038 22 98 3.2 3.2 0.00 0.00 0.00 78 1019.9
20260905230516 23 94 3.2 3.2 0.00 0.00 0.00 78 1020.0
20260905230055 23 104 1.6 3.2 0.00 0.00 0.00 77 1020.0
20260905225533 23 109 3.2 4.8 0.00 0.00 0.00 78 1020.1
20260905225032 23 99 3.2 6.4 0.00 0.00 0.00 76 1020.1
20260905224530 23 91 3.2 3.2 0.00 0.00 0.00 75 1020.1
20260905224028 24 86 1.6 4.8 0.00 0.00 0.00 74 1020.3
20260905223527 25 85 3.2 4.8 0.00 0.00 0.00 71 1020.4
20260905223026 25 105 3.2 6.4 0.00 0.00 0.00 69 1020.2
20260905222524 24 88 1.6 4.8 0.00 0.00 0.00 71 1020.2
20260905222023 24 84 1.6 4.8 0.00 0.00 0.00 70 1020.2
20260905221541 25 97 3.2 6.4 0.00 0.00 0.00 68 1020.2
20260905221020 24 102 3.2 4.8 0.00 0.00 0.00 69 1020.1
20260905220539 23 86 1.6 4.8 0.00 0.00 0.00 72 1020.0
20260905220017 24 86 1.6 3.2 0.00 0.00 0.00 71 1020.1
20260905215515 25 88 3.2 3.2 0.00 0.00 0.00 68 1020.1
20260905215054 25 96 3.2 6.4 0.00 0.00 0.00 70 1020.0
20260905214533 24 92 1.6 6.4 0.00 0.00 0.00 69 1020.0
20260905214031 24 121 1.6 6.4 0.00 0.00 0.00 71 1020.0
20260905213529 23 78 1.6 4.8 0.00 0.00 0.00 72 1019.9
20260905213028 24 88 1.6 6.4 0.00 0.00 0.00 70 1019.9
20260905212527 24 109 3.2 4.8 0.00 0.00 0.00 70 1019.9
20260905212025 23 87 1.6 6.4 0.00 0.00 0.00 73 1020.0
20260905211524 22 73 1.6 4.8 0.00 0.00 0.00 74 1020.1
20260905211022 23 81 3.2 3.2 0.00 0.00 0.00 72 1020.1
20260905210521 23 103 3.2 6.4 0.00 0.00 0.00 73 1020.1
20260905210019 23 107 3.2 4.8 0.00 0.00 0.00 74 1020.3
20260905205538 23 113 1.6 6.4 0.00 0.00 0.00 76 1020.2
20260905205016 22 81 3.2 6.4 0.00 0.00 0.00 75 1020.4
20260905204535 22 95 3.2 6.4 0.00 0.00 0.00 75 1020.4
20260905204033 21 84 1.6 3.2 0.00 0.00 0.00 78 1020.4
20260905203612 22 86 3.2 4.8 0.00 0.00 0.00 78 1020.5
20260905203051 22 85 3.2 3.2 0.00 0.00 0.00 78 1020.6
20260905202529 22 66 1.6 4.8 0.00 0.00 0.00 80 1020.6
20260905202028 22 95 0.0 1.6 0.00 0.00 0.00 78 1020.7
20260905201526 22 101 3.2 6.4 0.00 0.00 0.00 76 1020.7
20260905201025 21 76 3.2 6.4 0.00 0.00 0.00 78 1020.6
20260905200523 21 59 3.2 6.4 0.00 0.00 0.00 80 1020.6
20260905200022 21 60 1.6 4.8 0.00 0.00 0.00 81 1020.6
20260905195520 21 77 3.2 4.8 0.00 0.00 0.00 81 1020.6
20260905195019 21 90 3.2 4.8 0.00 0.00 0.00 83 1020.7
20260905194517 21 81 1.6 3.2 0.00 0.00 0.00 84 1020.9
20260905194016 21 99 1.6 3.2 0.00 0.00 0.00 85 1020.7
20260905193614 21 84 1.6 6.4 0.00 0.00 0.00 86 1020.7
20260905193033 21 88 1.6 3.2 0.00 0.00 0.00 86 1020.8
20260905192531 21 93 1.6 3.2 0.00 0.00 0.00 86 1020.8
20260905192030 21 84 1.6 3.2 0.00 0.00 0.00 85 1020.7
20260905191528 21 89 1.6 3.2 0.00 0.00 0.00 85 1020.7
20260905191027 21 94 1.6 3.2 0.00 0.00 0.00 84 1020.7
20260905190545 21 109 1.6 4.8 0.00 0.00 0.00 85 1020.8
20260905190044 21 90 1.6 3.2 0.00 0.00 0.00 86 1020.8
20260905185522 21 102 1.6 6.4 0.00 0.00 0.00 85 1020.8
20260905185021 21 134 1.6 4.8 0.00 0.00 0.00 86 1020.8
20260905184539 21 69 4.8 9.7 0.00 0.00 0.00 86 1020.5
20260905184017 21 86 3.2 6.4 0.00 0.00 0.00 85 1020.6
20260905183516 21 115 3.2 6.4 0.00 0.00 0.00 85 1020.6
20260905183034 21 68 3.2 6.4 0.00 0.00 0.00 86 1020.7
20260905182533 21 109 3.2 6.4 0.00 0.00 0.00 86 1020.7
20260905182032 21 105 1.6 6.4 0.00 0.00 0.00 86 1020.7
20260905181530 21 69 3.2 6.4 0.00 0.00 0.00 85 1020.9
20260905181029 21 128 1.6 4.8 0.00 0.00 0.00 85 1020.9
20260905180527 20 114 1.6 6.4 0.00 0.00 0.00 86 1020.9
20260905180026 21 123 1.6 4.8 0.00 0.00 0.00 86 1020.9
20260905175544 21 96 3.2 6.4 0.00 0.00 0.00 86 1020.9
20260905175023 21 100 3.2 4.8 0.00 0.00 0.00 86 1020.8
20260905174521 20 96 1.6 6.4 0.00 0.00 0.00 88 1020.9
20260905174019 21 85 1.6 4.8 0.00 0.00 0.00 88 1020.9
20260905173518 21 86 3.2 6.4 0.00 0.00 0.00 86 1020.9
20260905173017 20 91 3.2 6.4 0.00 0.00 0.00 87 1020.8
20260905172515 21 97 3.2 6.4 0.00 0.00 0.00 86 1020.9
20260905172034 21 96 1.6 6.4 0.00 0.00 0.00 87 1020.8
20260905171532 21 95 1.6 4.8 0.00 0.00 0.00 86 1020.9